{"data":{"norad_id":58490,"epoch":"2026-09-20T09:18:36.237888Z","epoch_age_seconds":156404,"freshness":"FRESH","line1":"1 58490U 23186T   26263.38791942  .00001167  00000+0  51923-4 0  9996","line2":"2 58490  43.0057  44.0181 0002161 269.4253  90.6351 15.27579246155661","mean_motion":15.27579246,"eccentricity":0.0002161,"inclination_deg":43.0057,"raan_deg":44.0181,"arg_perigee_deg":269.4253,"mean_anomaly_deg":90.6351,"bstar":5.1923e-5,"rev_number":15566,"period_min":94.266795242909,"perigee_km":481.56865098458,"apogee_km":484.53405659109,"semimajor_km":6861.1883537878,"source":"CELESTRAK","updated_at":"2026-09-21T09:00:33.904958Z"}}